Weather History for Somerset, KY

Change the Weather History Date:

Saturday, December 29, 2012

  Actual Average Record
Temperature  
Mean Temperature 32 °F -  
Max Temperature 37 °F 44 °F 68 °F (1996)
Min Temperature 28 °F 27 °F 17 °F (2001)
Degree Days  
Heating Degree Days 32    
Moisture  
Dew Point 30 °F    
Average Humidity 88    
Maximum Humidity 100    
Minimum Humidity 69    
Precipitation  
Precipitation 0.18 in - - ()
Sea Level Pressure  
Sea Level Pressure 29.97 in    
Wind  
Wind Speed 9 mph (WNW)    
Max Wind Speed 18 mph    
Max Gust Speed 25 mph    
Visibility 7 miles    
Events Rain , Snow    
Averages and records for this station are not official NWS values.
T = Trace of Precipitation, MM = Missing Value Source: NWS Daily Summary

Daily Weather History Graph

Daily Weather History Graph

Search for Another Location

Airport:

Trip Planner

Search our weather history database for the weather conditions in past years. The results will help you decide how hot, cold, wet, or windy it might be!

Date:

Astronomy

Dec. 29, 2012 Rise Set
Actual Time 7:51 AM EST 5:30 PM EST
Civil Twilight 7:22 AM EST 5:59 PM EST
Nautical Twilight 6:49 AM EST 6:31 PM EST
Astronomical Twilight 6:18 AM EST 7:03 PM EST
Moon 7:00 PM EST (12/29) 8:26 AM EST (12/29)
Length of Visible Light 10h 36m
Length of Day
9h 38m
Full, 98% of the Moon is Illuminated
Dec 29
Full
Jan 4
Last Quarter
Jan 11
New
Jan 18
First Quarter
Jan 26
Full

Hourly Weather History & Observations

Time (EST) Temp. Windchill Dew Point Humidity Pressure Visibility Wind Dir Wind Speed Gust Speed Precip Events Conditions
12:15 AM 35.6 °F 30.7 °F 33.8 °F 93% 29.79 in 3.0 mi NW 5.8 mph - 0.02 in Rain Rain
12:35 AM 35.6 °F 30.7 °F 35.6 °F 100% 29.78 in 2.0 mi NNW 5.8 mph - 0.05 in Rain Light Rain
12:55 AM 35.6 °F 31.7 °F 35.6 °F 100% 29.77 in 3.0 mi NNE 4.6 mph - 0.07 in Rain Rain
1:15 AM 35.6 °F 31.7 °F 33.8 °F 93% 29.77 in 3.0 mi North 4.6 mph - 0.01 in Rain Rain
1:35 AM 35.6 °F 32.8 °F 33.8 °F 93% 29.76 in 3.0 mi NNE 3.5 mph - 0.04 in Rain Rain
1:55 AM 35.6 °F 31.7 °F 33.8 °F 93% 29.75 in 4.0 mi SE 4.6 mph - 0.05 in Rain Rain
2:15 AM 35.6 °F 31.7 °F 33.8 °F 93% 29.75 in 5.0 mi SE 4.6 mph - 0.01 in Rain Rain
2:35 AM 35.6 °F 31.7 °F 35.6 °F 100% 29.75 in 4.0 mi SSE 4.6 mph - 0.02 in Rain Light Rain
2:55 AM 35.6 °F 30.7 °F 35.6 °F 100% 29.75 in 5.0 mi South 5.8 mph - 0.02 in Rain Rain
3:15 AM 35.6 °F 32.8 °F 35.6 °F 100% 29.75 in 5.0 mi South 3.5 mph - N/A   Drizzle
3:35 AM 35.6 °F 32.8 °F 35.6 °F 100% 29.75 in 4.0 mi South 3.5 mph - 0.01 in Rain Rain
3:55 AM 35.6 °F 31.7 °F 35.6 °F 100% 29.74 in 5.0 mi South 4.6 mph - 0.02 in   Drizzle
4:15 AM 35.6 °F 31.7 °F 35.6 °F 100% 29.74 in 5.0 mi SSW 4.6 mph - N/A   Drizzle
4:35 AM 37.4 °F 31.4 °F 35.6 °F 93% 29.74 in 4.0 mi SW 8.1 mph - N/A Rain Rain
4:55 AM 37.4 °F 29.8 °F 35.6 °F 93% 29.74 in 4.0 mi WSW 11.5 mph 17.3 mph 0.01 in Rain Rain
5:15 AM 37.4 °F 28.2 °F 35.6 °F 93% 29.75 in 7.0 mi WSW 16.1 mph 21.9 mph N/A   Drizzle
5:35 AM 37.4 °F 29.3 °F 35.6 °F 93% 29.76 in 10.0 mi WSW 12.7 mph - N/A   Drizzle
5:55 AM 37.4 °F 28.9 °F 35.6 °F 93% 29.76 in 7.0 mi West 13.8 mph 19.6 mph N/A Rain Rain
6:15 AM 37.4 °F 28.2 °F 33.8 °F 87% 29.78 in 7.0 mi West 16.1 mph 20.7 mph 0.01 in   Drizzle
6:35 AM 35.6 °F 25.9 °F 33.8 °F 93% 29.79 in 7.0 mi West 16.1 mph 21.9 mph 0.01 in   Drizzle
6:55 AM 35.6 °F 27.5 °F 33.8 °F 93% 29.81 in 7.0 mi West 11.5 mph 18.4 mph 0.01 in Rain Rain
7:15 AM 35.6 °F 25.2 °F 33.8 °F 93% 29.82 in 7.0 mi West 18.4 mph 21.9 mph N/A   Overcast
7:35 AM 35.6 °F 26.2 °F 32.0 °F 87% 29.84 in 5.0 mi West 15.0 mph 20.7 mph N/A   Overcast
7:55 AM 33.8 °F 25.3 °F 32.0 °F 93% 29.86 in 10.0 mi WNW 11.5 mph 19.6 mph N/A   Overcast
8:15 AM 33.8 °F 25.8 °F 32.0 °F 93% 29.87 in 10.0 mi West 10.4 mph 19.6 mph N/A   Overcast
8:35 AM 33.8 °F 23.5 °F 32.0 °F 93% 29.88 in 10.0 mi WNW 16.1 mph 21.9 mph N/A   Overcast
8:55 AM 33.8 °F 25.8 °F 32.0 °F 93% 29.89 in 7.0 mi WNW 10.4 mph 21.9 mph N/A   Overcast
9:15 AM 33.8 °F 26.4 °F 32.0 °F 93% 29.90 in 5.0 mi West 9.2 mph - N/A   Overcast
9:35 AM 33.8 °F 27.7 °F 30.2 °F 87% 29.92 in 7.0 mi NW 6.9 mph - N/A   Overcast
9:55 AM 33.8 °F 26.4 °F 32.0 °F 93% 29.93 in 7.0 mi West 9.2 mph - N/A   Overcast
10:15 AM 32.0 °F 22.5 °F 30.2 °F 93% 29.94 in 10.0 mi West 12.7 mph 17.3 mph N/A   Overcast
10:35 AM 32.0 °F 24.2 °F 30.2 °F 93% 29.95 in 10.0 mi West 9.2 mph - N/A   Overcast
10:55 AM 32.0 °F 24.2 °F 30.2 °F 93% 29.96 in 10.0 mi West 9.2 mph - N/A   Overcast
11:15 AM 32.0 °F 22.5 °F 30.2 °F 93% 29.96 in 7.0 mi West 12.7 mph 16.1 mph N/A   Overcast
11:35 AM 32.0 °F 23.0 °F 30.2 °F 93% 29.97 in 7.0 mi West 11.5 mph - N/A   Overcast
11:55 AM 32.0 °F 22.1 °F 30.2 °F 93% 29.97 in 7.0 mi West 13.8 mph 18.4 mph N/A   Overcast
12:15 PM 32.0 °F 22.5 °F 30.2 °F 93% 29.97 in 5.0 mi West 12.7 mph 20.7 mph N/A   Overcast
12:35 PM 32.0 °F 23.0 °F 30.2 °F 93% 29.97 in 7.0 mi WNW 11.5 mph 19.6 mph N/A   Overcast
12:55 PM 32.0 °F 23.0 °F 30.2 °F 93% 29.97 in 10.0 mi WNW 11.5 mph - N/A   Overcast
1:15 PM 32.0 °F 24.2 °F 30.2 °F 93% 29.97 in 10.0 mi West 9.2 mph - N/A   Overcast
1:55 PM 32.0 °F 24.8 °F 30.2 °F 93% 29.98 in 10.0 mi WNW 8.1 mph - N/A   Overcast
2:15 PM 32.0 °F 22.1 °F 30.2 °F 93% 29.98 in 10.0 mi WNW 13.8 mph 17.3 mph N/A   Overcast
2:35 PM 32.0 °F 24.2 °F 28.4 °F 87% 29.99 in 7.0 mi WNW 9.2 mph - N/A   Overcast
2:55 PM 32.0 °F 24.2 °F 28.4 °F 87% 30.00 in 7.0 mi NW 9.2 mph - N/A   Overcast
3:15 PM 32.0 °F 24.2 °F 30.2 °F 93% 30.01 in 5.0 mi WNW 9.2 mph - N/A Snow Light Snow
3:35 PM 32.0 °F 25.6 °F 30.2 °F 93% 30.02 in 7.0 mi WNW 6.9 mph 16.1 mph N/A   Overcast
3:55 PM 32.0 °F 27.5 °F 30.2 °F 93% 30.04 in 4.0 mi WNW 4.6 mph - N/A Snow Light Snow
4:15 PM 32.0 °F 24.2 °F 30.2 °F 93% 30.05 in 7.0 mi WNW 9.2 mph - N/A Snow Light Snow
4:35 PM 32.0 °F 23.6 °F 30.2 °F 93% 30.06 in 7.0 mi WNW 10.4 mph - N/A Snow Light Snow
4:55 PM 32.0 °F 25.6 °F 28.4 °F 87% 30.07 in 5.0 mi WNW 6.9 mph - N/A Snow Light Snow
5:15 PM 32.0 °F 23.0 °F 28.4 °F 87% 30.08 in 7.0 mi WNW 11.5 mph 18.4 mph N/A   Overcast
5:35 PM 32.0 °F 23.6 °F 26.6 °F 80% 30.09 in 10.0 mi WNW 10.4 mph 19.6 mph N/A   Overcast
5:55 PM 32.0 °F 24.2 °F 28.4 °F 87% 30.10 in 5.0 mi WNW 9.2 mph - N/A Snow Light Snow
6:15 PM 32.0 °F 23.0 °F 28.4 °F 87% 30.11 in 7.0 mi WNW 11.5 mph - N/A Snow Light Snow
6:35 PM 32.0 °F 23.6 °F 26.6 °F 80% 30.13 in 10.0 mi NW 10.4 mph - N/A Snow Light Snow
6:55 PM 32.0 °F 24.8 °F 26.6 °F 80% 30.13 in 10.0 mi NW 8.1 mph 17.3 mph N/A   Overcast
7:15 PM 32.0 °F 23.0 °F 24.8 °F 75% 30.14 in 10.0 mi WNW 11.5 mph 19.6 mph N/A   Overcast
7:35 PM 32.0 °F 23.6 °F 24.8 °F 75% 30.15 in 10.0 mi WNW 10.4 mph 17.3 mph N/A   Overcast
7:55 PM 32.0 °F 24.2 °F 24.8 °F 75% 30.16 in 10.0 mi WNW 9.2 mph 17.3 mph N/A   Overcast
8:15 PM 32.0 °F 23.6 °F 26.6 °F 80% 30.17 in 10.0 mi WNW 10.4 mph 16.1 mph N/A Snow Light Snow
8:35 PM 32.0 °F 21.6 °F 23.0 °F 69% 30.19 in 10.0 mi NW 15.0 mph 20.7 mph N/A   Overcast
8:55 PM 30.2 °F 21.3 °F 21.2 °F 69% 30.20 in 10.0 mi NW 10.4 mph - N/A   Overcast
9:15 PM 30.2 °F 20.2 °F 21.2 °F 69% 30.20 in 10.0 mi NW 12.7 mph 19.6 mph N/A   Overcast
9:35 PM 30.2 °F 20.8 °F 23.0 °F 75% 30.22 in 10.0 mi WNW 11.5 mph 18.4 mph N/A   Overcast
9:55 PM 30.2 °F 21.3 °F 23.0 °F 75% 30.22 in 10.0 mi WNW 10.4 mph 17.3 mph N/A   Overcast
10:15 PM 30.2 °F 21.9 °F 23.0 °F 75% 30.23 in 10.0 mi WNW 9.2 mph - N/A Snow Light Snow
10:35 PM 30.2 °F 20.8 °F 23.0 °F 75% 30.25 in 10.0 mi NW 11.5 mph 19.6 mph N/A   Overcast
10:55 PM 30.2 °F 20.2 °F 21.2 °F 69% 30.25 in 10.0 mi WNW 12.7 mph 19.6 mph N/A   Overcast
11:15 PM 28.4 °F 17.5 °F 21.2 °F 74% 30.27 in 10.0 mi West 13.8 mph 25.3 mph N/A   Overcast
11:35 PM 28.4 °F 17.0 °F 21.2 °F 74% 30.29 in 10.0 mi WNW 15.0 mph 20.7 mph N/A   Overcast
11:55 PM 28.4 °F 18.0 °F 19.4 °F 69% 30.29 in 10.0 mi WNW 12.7 mph 20.7 mph N/A   Overcast